Location: Observatorio Las Palmas
(29.0667°N, 110.9333°W)
Time: 20:11:29
(UTC-07:00)

HST - Visible Passes

Search period start: 19 April 2014 00:00
Search period end: 29 April 2014 00:00
Orbit: 548 x 553 km, 28.5° (Epoch: 19 April)

Date Brightness Start Highest point End Pass type
(mag) Time Alt. Az. Time Alt. Az. Time Alt. Az.
19 Apr 0.8 19:40:20 10° W 19:44:31 79° S 19:47:41 17° E visible
19 Apr 3.1 21:21:48 10° W 21:23:17 21° W 21:23:17 21° W visible
20 Apr 0.8 19:33:53 10° W 19:38:04 83° S 19:41:37 14° E visible
20 Apr 2.8 21:15:22 10° W 21:17:13 25° W 21:17:13 25° W visible
21 Apr 0.8 19:27:26 10° W 19:31:37 84° S 19:35:31 12° E visible
21 Apr 2.5 21:08:56 10° W 21:11:07 28° W 21:11:07 28° W visible
22 Apr 0.8 19:20:58 10° W 19:25:09 82° S 19:29:21 10° E visible
22 Apr 2.3 21:02:31 10° W 21:04:59 30° WSW 21:04:59 30° WSW visible
23 Apr 0.9 19:14:30 10° W 19:18:41 77° S 19:22:52 10° E visible
23 Apr 2.2 20:56:08 10° W 20:58:50 30° SW 20:58:50 30° SW visible
24 Apr 2.3 20:49:48 10° W 20:52:40 27° SW 20:52:40 27° SW visible
25 Apr 2.5 20:43:34 10° WSW 20:46:32 22° SSW 20:46:32 22° SSW visible
26 Apr 2.8 20:37:30 10° WSW 20:40:14 17° SSW 20:40:24 17° SSW visible
27 Apr 3.1 20:31:48 10° SW 20:33:36 13° SSW 20:34:18 12° SSW visible
